TimeCDT,TemperatureF,Dew PointF,Humidity,Sea Level PressureIn,VisibilityMPH,Wind Direction,Wind SpeedMPH,Gust SpeedMPH,PrecipitationIn,Events,Conditions,WindDirDegrees,DateUTC
12:15 AM,44.6,43.0,94,30.11,3.0,NW,13.8,20.7,0.04,,Overcast,320,2012-10-26 05:15:00
12:35 AM,44.6,42.8,93,30.13,3.0,NNW,15.0,20.7,N/A,,Overcast,330,2012-10-26 05:35:00
12:55 AM,44.2,42.8,95,30.13,2.0,NNW,12.7,16.1,0.22,,Overcast,330,2012-10-26 05:55:00
1:15 AM,44.6,42.8,93,30.12,7.0,NNW,8.1,-,N/A,Rain,Rain,340,2012-10-26 06:15:00
1:35 AM,44.2,42.3,93,30.12,10.0,NNW,11.5,18.4,0.07,Rain,Rain,330,2012-10-26 06:35:00
1:55 AM,44.6,41.9,90,30.13,10.0,NNW,10.4,18.4,0.07,,Overcast,340,2012-10-26 06:55:00
2:15 AM,43.7,40.6,89,30.16,10.0,NNW,15.0,24.2,N/A,,Overcast,330,2012-10-26 07:15:00
2:35 AM,43.9,39.4,84,30.21,10.0,NW,16.1,-,N/A,,Overcast,310,2012-10-26 07:35:00
2:55 AM,43.2,38.8,85,30.18,10.0,NW,17.3,26.5,0.02,Rain,Rain,320,2012-10-26 07:55:00
3:15 AM,42.4,38.7,86,30.18,10.0,NNW,16.1,24.2,0.01,Rain,Light Rain,330,2012-10-26 08:15:00
3:35 AM,42.4,38.5,86,30.19,10.0,NNW,15.0,21.9,0.02,Rain,Light Rain,330,2012-10-26 08:35:00
3:55 AM,42.4,37.8,83,30.19,10.0,NNW,12.7,19.6,0.02,,Unknown,340,2012-10-26 08:55:00
4:15 AM,42.3,36.1,79,30.19,10.0,NNW,17.3,23.0,N/A,,Unknown,340,2012-10-26 09:15:00
4:35 AM,41.9,36.1,80,30.19,10.0,NNW,11.5,17.3,N/A,,Unknown,340,2012-10-26 09:35:00
4:55 AM,41.9,36.0,79,30.20,10.0,North,10.4,21.9,N/A,,Unknown,350,2012-10-26 09:55:00
5:15 AM,41.9,35.2,77,30.20,10.0,North,17.3,25.3,N/A,,Unknown,350,2012-10-26 10:15:00
5:35 AM,41.5,34.9,77,30.21,10.0,North,12.7,24.2,N/A,,Unknown,360,2012-10-26 10:35:00
5:55 AM,41.5,34.7,77,30.21,10.0,North,13.8,21.9,N/A,,Unknown,350,2012-10-26 10:55:00
6:15 AM,41.4,34.7,77,30.22,10.0,NNW,12.7,-,N/A,,Unknown,340,2012-10-26 11:15:00
6:35 AM,41.4,34.9,78,30.23,7.0,North,11.5,-,N/A,,Unknown,350,2012-10-26 11:35:00
6:55 AM,41.4,34.7,77,30.24,10.0,North,9.2,-,N/A,,Unknown,350,2012-10-26 11:55:00
7:15 AM,41.2,34.5,77,30.25,10.0,North,6.9,-,N/A,,Unknown,360,2012-10-26 12:15:00
7:35 AM,41.0,34.5,78,30.26,10.0,North,9.2,-,N/A,,Unknown,10,2012-10-26 12:35:00
7:55 AM,41.0,34.3,77,30.27,10.0,North,11.5,19.6,N/A,,Unknown,350,2012-10-26 12:55:00
8:15 AM,41.0,32.0,70,30.28,10.0,North,12.7,19.6,N/A,,Unknown,350,2012-10-26 13:15:00
8:35 AM,41.0,32.0,70,30.28,10.0,North,16.1,23.0,N/A,,Unknown,360,2012-10-26 13:35:00
8:55 AM,40.5,31.8,71,30.30,10.0,North,10.4,17.3,N/A,,Unknown,350,2012-10-26 13:55:00
9:15 AM,40.5,32.0,72,30.28,10.0,North,12.7,19.6,N/A,,Unknown,360,2012-10-26 14:15:00
9:35 AM,41.0,32.0,70,30.29,10.0,North,12.7,19.6,N/A,,Unknown,360,2012-10-26 14:35:00
9:55 AM,41.0,32.0,70,30.30,10.0,North,16.1,23.0,N/A,,Unknown,360,2012-10-26 14:55:00
10:15 AM,42.6,32.4,67,30.30,10.0,North,13.8,20.7,N/A,,Unknown,10,2012-10-26 15:15:00
10:35 AM,43.0,33.1,68,30.30,10.0,North,16.1,21.9,N/A,,Unknown,360,2012-10-26 15:35:00
10:55 AM,42.4,32.2,67,30.29,10.0,North,15.0,24.2,N/A,,Unknown,350,2012-10-26 15:55:00
11:15 AM,42.8,32.4,67,30.30,10.0,North,11.5,21.9,N/A,,Unknown,360,2012-10-26 16:15:00
11:35 AM,43.3,33.3,68,30.30,10.0,North,11.5,19.6,N/A,,Unknown,360,2012-10-26 16:35:00
11:55 AM,43.7,32.9,66,30.30,10.0,North,12.7,20.7,N/A,,Unknown,10,2012-10-26 16:55:00
12:15 PM,43.7,33.3,67,30.29,10.0,North,13.8,18.4,N/A,,Unknown,350,2012-10-26 17:15:00
12:35 PM,44.2,34.5,69,30.29,10.0,North,16.1,-,N/A,,Unknown,360,2012-10-26 17:35:00
12:55 PM,44.2,33.3,65,30.30,10.0,North,15.0,21.9,N/A,,Unknown,10,2012-10-26 17:55:00
1:15 PM,45.0,33.6,64,30.29,10.0,North,15.0,21.9,N/A,,Unknown,360,2012-10-26 18:15:00
1:35 PM,45.5,33.4,63,30.28,10.0,North,15.0,21.9,N/A,Rain,Rain,350,2012-10-26 18:35:00
1:55 PM,45.9,34.2,64,30.26,10.0,North,17.3,-,N/A,Rain,Rain,350,2012-10-26 18:55:00
2:15 PM,46.8,34.0,61,30.26,10.0,North,12.7,19.6,N/A,Rain,Rain,360,2012-10-26 19:15:00
2:35 PM,46.4,33.8,62,30.26,10.0,North,13.8,20.7,N/A,Rain,Rain,360,2012-10-26 19:35:00
2:55 PM,47.1,33.8,60,30.26,10.0,North,11.5,19.6,N/A,Rain,Rain,360,2012-10-26 19:55:00
3:15 PM,47.3,33.4,59,30.26,10.0,North,12.7,20.7,N/A,Rain,Rain,360,2012-10-26 20:15:00
3:35 PM,48.0,33.1,56,30.25,10.0,NNW,15.0,20.7,N/A,Rain,Rain,340,2012-10-26 20:35:00
3:55 PM,47.7,34.2,60,30.25,10.0,North,13.8,21.9,N/A,Rain,Heavy Rain,350,2012-10-26 20:55:00
4:15 PM,48.2,33.4,57,30.25,10.0,NNW,13.8,21.9,N/A,Rain,Rain,340,2012-10-26 21:15:00
4:35 PM,48.0,33.1,56,30.24,10.0,North,10.4,17.3,N/A,Rain,Rain,350,2012-10-26 21:35:00
4:55 PM,47.7,32.5,56,30.24,10.0,North,11.5,20.7,N/A,Rain,Rain,360,2012-10-26 21:55:00
5:15 PM,47.3,31.6,55,30.24,10.0,North,13.8,19.6,N/A,Rain,Rain,360,2012-10-26 22:15:00
5:35 PM,46.4,32.0,57,30.24,10.0,NNW,9.2,-,N/A,,Clear,340,2012-10-26 22:35:00
5:55 PM,45.5,32.5,61,30.24,10.0,North,6.9,-,N/A,,Clear,360,2012-10-26 22:55:00
6:15 PM,45.0,33.6,64,30.24,7.0,NNW,8.1,-,N/A,,Clear,340,2012-10-26 23:15:00
6:35 PM,44.6,33.8,66,30.25,10.0,NNW,6.9,-,N/A,,Clear,340,2012-10-26 23:35:00
6:55 PM,44.2,34.0,67,30.25,10.0,NNW,6.9,-,N/A,,Clear,340,2012-10-26 23:55:00
7:15 PM,43.9,34.3,69,30.25,10.0,NNW,6.9,-,N/A,,Clear,340,2012-10-27 00:15:00
7:35 PM,43.7,34.0,69,30.25,10.0,NNW,8.1,-,N/A,,Clear,340,2012-10-27 00:35:00
7:55 PM,43.2,33.8,70,30.26,10.0,NNW,6.9,-,N/A,,Unknown,340,2012-10-27 00:55:00
8:15 PM,42.8,33.6,70,30.25,10.0,NNW,6.9,-,N/A,,Unknown,340,2012-10-27 01:15:00
8:35 PM,42.8,33.8,70,30.26,10.0,North,6.9,-,N/A,,Unknown,350,2012-10-27 01:35:00
8:55 PM,42.1,33.8,72,30.26,10.0,NNW,6.9,-,N/A,,Unknown,340,2012-10-27 01:55:00
9:15 PM,41.9,33.8,73,30.26,10.0,NNW,5.8,-,N/A,,Unknown,340,2012-10-27 02:15:00
9:35 PM,41.9,33.4,72,30.26,10.0,NNW,6.9,-,N/A,,Unknown,340,2012-10-27 02:35:00
9:55 PM,42.8,32.0,66,30.26,10.0,North,9.2,-,N/A,,Unknown,350,2012-10-27 02:55:00
10:15 PM,41.9,32.0,68,30.26,10.0,North,8.1,-,N/A,,Unknown,350,2012-10-27 03:15:00
10:35 PM,41.9,32.0,68,30.26,10.0,North,6.9,-,N/A,,Unknown,350,2012-10-27 03:35:00
10:55 PM,41.2,32.0,70,30.26,10.0,North,5.8,-,N/A,,Unknown,350,2012-10-27 03:55:00
11:15 PM,40.3,32.0,72,30.27,10.0,North,6.9,-,N/A,,Unknown,350,2012-10-27 04:15:00
11:35 PM,40.8,32.0,71,30.26,10.0,North,9.2,-,N/A,,Unknown,360,2012-10-27 04:35:00
11:55 PM,40.1,32.0,73,30.26,10.0,North,8.1,-,N/A,,Unknown,360,2012-10-27 04:55:00